星链-34788 (STARLINK-34788)

导读

STARLINK-34788是美国于2025年7月31日发射的星链卫星,隶属于SpaceX公司的星链星座项目。星链项目旨在构建全球卫星互联网星座,为全球偏远地区、海洋等网络覆盖薄弱区域提供高速互联网接入服务,STARLINK-34788加入后将进一步拓展星链星座的服务覆盖范围与网络容量。

Basic Information
目录编号:
65056
目录名称:
STARLINK-34788
国际标识:
2025-165A
轨道中心:
EARTH
卫星名称:
星链-34788
卫星全名:
星链-34788 (STARLINK-34788)
卫星状态:
在轨 (已飞行408 天)
发射日期:
2025-07-31 UTC
国别 :
美国 (US)
星等 :
--
This satellite is enrolled in the Space Conjunction Data Service (SCDS) and the current flight risk assessment level is: No High Risk
Orbit Information
数据来源 国际轨道数据
星历时间: 2026-09-12T15:21:49+0800
7小时前
查看轨道信息
半长轴: 6909.744km
偏心率: 0.0002822
轨道倾角: 97.284°
近地点辐角 133.849°
升交点赤经 326.700°
平近点角 226.298°
近地点: 529.657km
远地点: 533.557km
周期: 95.269分钟
每日圈数: 15.115059
Detailed Information
固有亮度:
5
最大亮度:
2.5
卫星平台:
Starlink V1.0
覆盖范围:
全球
运营商:
太空探索技术公司
运营商所在国:
美国
制造商(研发单位):
太空探索技术公司
制造商所在国:
美国
使用方式:
暂无
Satellite Introduction
Starlink 计划是 SpaceX 推出的全球卫星互联网项目,通过发射低轨道卫星,为全球尤其是偏远地区提供高速、低延迟的互联网服务。自 2019 年起,Starlink 已部署数千颗卫星,旨在缩小全球数字鸿沟,推动互联网普及。该项目还为军事、航空等行业提供通信支持,带来广泛经济效益。
2D Orbit Map
3D Orbit Map
Orbit Altitude Analysis Chart
Orbit Inclination Analysis Chart
Orbit Comprehensive Analysis Chart
View Comprehensive Chart
Conjunction Data List
Event ID Objects TCA Miss Dist (km) Collision Risk Probability Collision Risk Index (CRI) Action
CDM_260914-015905-578606-505621
2026-09-14T
01:59:02+0000
1.078 km
极远距离
1.936451E-5 中风险 0.61
CDM_260914-103506-334706-505621
2026-09-14T
10:35:49+0000
2.056 km
极远距离
2.377567E-6 低风险 0.43
Miss Distance Evolution Trend with All Objects
Collision Probability Evolution Trend with All Objects